Location: Caltech
(34.1382°N, 118.1253°W)
Time: 18:38:20
(UTC-07:00)

Oscar 19 - Visible Passes

Search period start: 22 April 2018 00:00
Search period end: 02 May 2018 00:00
Orbit: 774 x 790 km, 98.6° (Epoch: 22 April)

Date Brightness Start Highest point End Pass type
(mag) Time Alt. Az. Time Alt. Az. Time Alt. Az.
22 Apr 13.1 01:59:31 10° NNE 02:00:59 18° NE 02:00:59 18° NE visible
22 Apr 12.6 03:39:33 10° NNW 03:41:33 18° NW 03:41:33 18° NW visible
23 Apr 13.5 01:28:44 10° NE 01:28:50 10° NE 01:28:50 10° NE visible
23 Apr 12.3 03:06:54 10° N 03:09:24 26° NNW 03:09:24 26° NNW visible
24 Apr 12.4 02:34:49 10° NNE 02:37:14 28° NNE 02:37:14 28° NNE visible
25 Apr 12.9 02:03:13 10° NNE 02:05:05 21° NE 02:05:05 21° NE visible
25 Apr 12.6 03:43:27 10° NNW 03:45:38 17° NW 03:45:38 17° NW visible
26 Apr 13.4 01:32:18 10° NE 01:32:55 12° NE 01:32:55 12° NE visible
26 Apr 12.2 03:10:43 10° N 03:13:29 28° NNW 03:13:29 28° NNW visible
27 Apr 12.2 02:38:34 10° N 02:41:20 32° N 02:41:20 32° N visible
28 Apr 12.6 02:06:55 10° NNE 02:09:10 25° NE 02:09:10 25° NE visible
28 Apr 12.5 03:47:23 10° NNW 03:49:43 17° NW 03:49:43 17° NW visible
29 Apr 13.2 01:35:54 10° NE 01:37:00 14° NE 01:37:00 14° NE visible
29 Apr 12.1 03:14:32 10° N 03:17:34 29° NNW 03:17:34 29° NNW visible
30 Apr 11.9 02:42:20 10° N 02:45:24 36° N 02:45:24 36° N visible
01 May 12.4 02:10:37 10° NNE 02:13:14 28° NE 02:13:14 28° NE visible
01 May 12.5 03:51:20 10° NNW 03:53:47 16° NW 03:53:47 16° NW visible
